Regional Weather Roundup
Issued by NWS Charleston, SC

Home | Current Version | Previous Version | Text Only | Print | Product List | Glossary On
Versions: 1 2 3 4 5 6 7 8 9 10 11 12 13 14 15 16 17 18 19 20 21 22 23 24 25 26 27 28 29 30 31 32 33 34 35 36 37 38 39 40 41 42 43 44 45 46 47 48 49 50
000
ASUS42 KCHS 040228
RWRCHS

REGIONAL WEATHER ROUNDUP
NATIONAL WEATHER SERVICE CHARLESTON SC
1000 PM EDT TUE MAY 03 2016

NOTE: "FAIR" INDICATES FEW OR NO CLOUDS BELOW 12,000 FEET WITH NO
SIGNIFICANT WEATHER AND/OR OBSTRUCTIONS TO VISIBILITY.

NOT ALL STATIONS ARE QUALITY CONTROLLED. USE DATA WITH CAUTION...
ESPECIALLY DEWPOINT OBSERVATIONS.

SCZ027-030-031-034>040-042>050-040300-
...SOUTHEAST SOUTH CAROLINA...

CITY           SKY/WX    TMP DP  RH WIND       PRES   REMARKS
N CHARLESTON   TSTM      71  66  84 SW30G51   29.88R FOG
WATERFRONT PRK   N/A     75  69  81 SW6       29.77R
MOUNT PLEASANT LGT RAIN  75  68  78 SW8       29.82R
JOHNS ISLAND   TSTM      70  68  94 W21G32    29.87R
PINOPOLIS        N/A     79  68  69 SW7       29.71R
MONCKS CORNER  MOCLDY    70  63  78 SW7       29.80R
SUMMERVILLE    CLOUDY    72  66  83 SW9       29.84R
BEAUFORT MCAS  TSTM      68  66  93 CALM      29.85F
BEAUFORT ARPT  FAIR      68  66  94 NW6       29.83F
HILTON HEAD IS CLOUDY    68  68 100 CALM      29.85F
WALTERBORO     CLOUDY    70  68  94 S10       29.85R
ALLENDALE      FAIR      70  68  94 CALM      29.80F

...SOUTHERN MIDLANDS AND PEE DEE...

CITY           SKY/WX    TMP DP  RH WIND       PRES   REMARKS
GEORGETOWN     FAIR      72  70  94 SW6       29.79R
KINGSTREE      FAIR      72  64  78 S3        29.77R
ORANGEBURG     PTCLDY    73  65  75 W8        29.78R
BARNWELL       FAIR      73  70  88 SW5       29.81S
AIKEN          FAIR      68  64  88 SW6       29.83S
MANNING        FAIR      72  66  83 SW5       29.78R
COLUMBIA       PTCLDY    71  66  84 SW8       29.77S
SUMTER         PTCLDY    71  65  81 W8        29.75R
FLORENCE       CLEAR     75  66  73 W10       29.75S
MYRTLE BEACH   CLEAR     75  64  69 SW7       29.78S
N MYRTLE BEACH CLEAR     73  70  90 SW14      29.75F

$$

GAZ063-065-086>088-099>101-113>116-118-119-134>141-150-040300-
...SOUTHEAST GEORGIA...

CITY           SKY/WX    TMP DP  RH WIND       PRES   REMARKS
SAVANNAH ARPT  CLOUDY    70  65  84 N7        29.83R
HUNTER AAF     CLOUDY    72  72 100 VRB2      29.81F
FORT STEWART   CLOUDY    72  68  88 W6        29.81R
STATESBORO     CLOUDY    70  69  95 W6        29.82F THUNDER
SYLVANIA       CLOUDY    68  67  96 W3        29.83F
CLAXTON        NOT AVBL

...CSRA...CENTRAL AND FAR SOUTHEAST GEORGIA...

CITY           SKY/WX    TMP DP  RH WIND       PRES   REMARKS
THOMSON        PTCLDY    70  70  99 CALM      29.85S
AUGUSTA-BUSH   CLEAR     69  67  93 SW5       29.79R
AUGUSTA-DANIEL CLEAR     73  65  75 CALM      29.81R
SWAINSBORO     CLOUDY    70  64  83 S6        29.85R THUNDER
VIDALIA        CLOUDY    68  64  88 W3        29.84S THUNDER
EASTMAN        CLOUDY    68  68 100 CALM      29.87S
HAZLEHURST     FAIR      69  69 100 SW3       29.83F
ALMA           CLOUDY    66  65  96 SE3       29.85S
WAYCROSS       CLOUDY    69  65  88 CALM      29.85S
JESUP          FAIR      73  70  88 CALM      29.85S
BAXLEY         FAIR      70  68  94 S5        29.84F
BRUNSWICK      CLOUDY    81  68  65 W8        29.85S
SAINT SIMONS   CLOUDY    78  68  71 W8        29.85R

$$

SCZ027-028-034-036>038-045-046-048>050-GAZ119-141-040300-
...LAKE AND SUPPLEMENTAL COASTAL OBSERVATIONS...

STATION/POSITION TIME  TEMP    WIND        PRES    WAVE   SWELL
                       AIR SEA DIR/SP/G            HT/PER HT/PER/DIR
                 (UTC) (F)     (DEG/KT/KT) (MB)    (FT/S) (FT/S/D)
WINYAH BAY       0100   75     210/  8     1007.0
LAKE MURRAY      0100   74     220/ 11/ 13 1007.5R
ACE BASIN NERRS  0100   71        CALM     1009.0S
FORT PULASKI     0200   70 75              1010.6R
SAPELO ISLAND    0200   76     230/  7     1010.0S

$$

ANZ835-935-AMZ111-154-330-350-352-354-370-450-454-472-040300-
...C-MAN AND BUOY OBSERVATIONS...

STATION/POSITION TIME  TEMP    WIND        PRES    WAVE   SWELL
                       AIR SEA DIR/SP/G            HT/PER HT/PER/DIR
                 (UTC) (F)     (DEG/KT/KT) (MB)    (FT/S) (FT/S/D)
BUOY 41004       0150   76 75  210/ 14/ 17 1008.6R   4/ 9   2/ 9
BUOY 41008       NOT AVBL
FOLLY BEACH CMAN 0200   74     240/ 11/ 14 1010.4R
CAPERS NEARSHORE 0108   73 72  240/ 12/ 16 1007.9F
FRIPP NEARSHORE  0208   69 75  350/ 14/ 17 1007.2F


STATION/POSITION TIME  TEMP    WIND        PRES    WAVE   SWELL
                       AIR SEA DIR/SP/G            HT/PER HT/PER/DIR
                 (UTC) (F)     (DEG/KT/KT) (MB)    (FT/S) (FT/S/D)
5E ST. MARYS GA  0121      73                N/A     3/11
FRYING PAN BUOY  0200   74 73  180/ 12/ 14 1008.0F
BUOY 41025       0150   74 72  220/ 16/ 19 1008.1R   5/ 6   2/170/ 8
CAPE LOOKOUT NC  0200   71     220/  9/ 12 1008.2R
BUOY 41002       0150   74 74  180/ 17/ 21 1011.7F   4/ 6   2/ 80/ 9
BUOY 41010       0120   78 79  190/  8/ 10 1012.8R
ST AUGUSTINE FL  0200   79 72  240/  5/  6 1012.0R


$$



USA.gov is the U.S. government's official web portal to all federal, state and local government web resources and services.